CST,Max TemperatureF,Mean TemperatureF,Min TemperatureF,Max Dew PointF,MeanDew PointF,Min DewpointF,Max Humidity, Mean Humidity, Min Humidity, Max Sea Level PressureIn, Mean Sea Level PressureIn, Min Sea Level PressureIn, Max VisibilityMiles, Mean VisibilityMiles, Min VisibilityMiles, Max Wind SpeedMPH, Mean Wind SpeedMPH, Max Gust SpeedMPH,PrecipitationIn, CloudCover, Events, WindDirDegrees
2012-2-1,41,34,27,34,30,25,92,83,73,30.21,30.13,29.97,10,6,0,15,4,22,0.00,6,Fog,308
2012-2-2,39,34,29,34,30,27,100,91,82,30.45,30.32,30.19,8,2,0,9,4,10,0.00,8,Fog,311
2012-2-3,35,32,28,31,29,27,92,87,82,30.51,30.44,30.37,10,3,0,14,8,17,T,8,Fog-Snow,62
2012-2-4,46,36,26,30,28,23,84,69,53,30.38,30.29,30.22,10,9,7,20,9,26,0.00,6,,51
2012-2-5,43,33,23,28,26,20,92,73,53,30.36,30.30,30.24,10,8,1,16,4,18,0.00,4,,335
2012-2-6,32,30,28,27,25,24,92,82,72,30.26,30.21,30.14,10,7,6,15,9,20,0.00,8,,262
2012-2-7,34,30,25,28,23,16,85,74,63,30.46,30.35,30.21,10,9,6,22,12,28,T,8,Snow,27
2012-2-8,35,26,17,16,14,11,80,63,45,30.46,30.41,30.34,10,10,10,14,7,17,0.00,2,,308
2012-2-9,35,26,16,23,18,12,88,66,43,30.34,30.21,30.09,10,10,7,18,9,23,0.00,4,,233
2012-2-10,33,23,12,28,18,0,85,72,58,30.35,30.05,29.92,10,6,0,29,14,37,0.03,7,Snow,317
2012-2-11,22,15,8,0,-2,-6,63,50,36,30.48,30.43,30.36,10,10,10,23,14,31,0.00,0,,316
2012-2-12,36,25,14,8,3,0,58,41,23,30.43,30.36,30.26,10,10,10,17,10,23,0.00,0,,285
2012-2-13,35,24,13,27,20,5,92,70,47,30.24,30.00,29.84,10,6,2,22,8,29,0.03,7,Snow,177
2012-2-14,35,32,29,28,27,26,92,84,75,30.03,29.89,29.83,10,8,2,15,8,20,T,8,Snow,224
2012-2-15,44,37,30,36,33,27,92,81,70,30.08,30.02,29.97,10,6,0,17,8,18,0.08,7,Fog-Rain,177
2012-2-16,46,37,28,36,29,21,100,69,37,30.16,30.06,29.97,10,6,0,20,9,25,0.00,3,Fog,300
2012-2-17,50,36,22,32,25,19,92,71,50,30.18,30.10,30.01,10,10,10,22,9,26,0.00,3,,227
2012-2-18,40,32,23,24,19,14,81,58,34,30.27,30.20,30.08,10,10,10,14,7,18,0.00,1,,16
2012-2-19,41,30,18,24,19,14,84,63,41,30.25,30.22,30.19,10,10,9,10,2,14,0.00,0,,103
2012-2-20,43,31,19,26,22,15,84,65,45,30.30,30.16,29.88,10,10,8,22,10,28,0.00,5,,151
2012-2-21,43,38,33,33,30,25,89,77,64,29.82,29.69,29.64,10,6,1,22,11,29,0.14,7,Rain-Snow,208
2012-2-22,45,37,28,34,30,25,92,79,65,29.70,29.52,29.44,10,8,1,14,5,17,T,6,Fog-Rain,223
2012-2-23,38,32,26,33,29,25,100,88,76,29.56,29.52,29.48,7,2,0,18,7,24,0.37,8,Fog-Rain-Snow,62
2012-2-24,34,28,22,30,25,14,92,78,63,29.99,29.69,29.47,10,6,0,25,16,32,0.20,7,Fog-Snow,321
2012-2-25,24,18,12,13,10,7,84,70,55,30.34,30.23,30.01,10,10,10,17,9,22,0.00,1,,272
2012-2-26,47,30,13,33,23,9,80,67,53,30.32,30.10,29.97,10,10,10,26,12,35,0.00,2,,176
2012-2-27,35,29,22,21,19,18,81,69,56,30.51,30.36,30.12,10,10,10,22,10,29,0.00,3,,282
2012-2-28,39,30,21,36,26,18,88,74,59,30.50,30.21,29.75,10,9,4,20,9,25,0.25,7,Rain,129
2012-2-29,52,43,33,45,34,28,93,69,44,29.73,29.54,29.44,10,6,2,32,18,40,0.21,6,Rain-Snow-Thunderstorm,213